Regional Weather Roundup
Issued by NWS

Home | Current Version | Previous Version | Text Only | Print | Product List | Glossary Off
Versions: 1 2 3 4 5 6 7 8 9 10 11 12 13 14 15 16 17 18 19 20 21 22 23 24 25 26 27 28 29 30 31 32 33 34 35 36 37 38 39 40 41 42 43 44 45 46 47 48 49 50

000
ASUS45 KTFX 281404
RWRMT
MONTANA HOURLY WEATHER ROUNDUP
NATIONAL WEATHER SERVICE GREAT FALLS MT
804 AM MDT SAT MAR 28 2015

NOTE: "FAIR" INDICATES FEW OR NO CLOUDS BELOW 12000 FEET WITH NO
SIGNIFICANT WEATHER AND/OR OBSTRUCTIONS TO VISIBILITY.

* THESE STATIONS ARE NOT UNDER NWS QUALITY CONTROL. THEY DO NOT
   REPORT WEATHER SUCH AS PRECIPITATION OR FOG.

MTZ001>007-043-281500-
WEST OF THE DIVIDE
CITY           SKY/WX    TMP DP  RH WIND       PRES   REMARKS
KALISPELL      CLOUDY    46  45  96 VRB3      29.82R
MISSOULA       CLOUDY    48  41  77 N8        29.92R
BUTTE          CLOUDY    32  28  85 S3        29.86F
MULLAN PASS    SNOW      30  30 100 VRB6      29.94R VSB 1/2  WCI  24
* ESSEX        N/A       41  41 100 NW1        N/A
* LINCOLN      N/A       28  26  92 NE1        N/A
* LOOKOUT PASS N/A       36  34  92 E3G12      N/A
* POLSON       N/A       45  42  89 W3G11      N/A
* SEELEY LAKE  N/A       35  34  96 E4         N/A
* THOMP F APT  CLOUDY    39  28  65 NE5G11     N/A   WCI  35
$$

MTZ008-052>055-281500-
SOUTHWEST MONTANA
CITY           SKY/WX    TMP DP  RH WIND       PRES   REMARKS
BOZEMAN        PTCLDY    45  30  56 CALM      29.82F
DILLON         SUNNY     46  30  54 S9        29.86F
* W YELLOWSTON SUNNY     26  25  96 N/A        N/A
* THREE FORKS  PTCLDY    57  34  42 SW8        N/A
* TWIN BRIDGES SUNNY     39  27  62 E5         N/A   WCI  35
* BOULDER HILL N/A       40  25  55 S12        N/A   WCI  33
* HOMESTAKE PS N/A       50  25  38 SW6G12     N/A
* MONIDA PASS  N/A       39  29  67 SE20       N/A   WCI  29
* RAYNOLDS PAS N/A       34   7  32 SE5        N/A   WCI  29
* WHITEHALL    N/A       43  29  58 N9         N/A
* WISE RIVER   N/A       28  26  92 W5         N/A   WCI  22
$$

MTZ009>010-012-014-046-048-049-054-281500-
EAST SLOPES AND CENTRAL MONTANA
CITY           SKY/WX    TMP DP  RH WIND       PRES   REMARKS
GREAT FALLS    PTCLDY    55  32  42 S10       29.64F
HELENA         PTCLDY    41  34  76 NW7       29.73F
MALMSTROM AFB  PTSUNNY   57  32  39 S15G31    29.65F
* DEARBORN     N/A       46  33  61 S3         N/A
* EAST GLACIER N/A       46  38  74 W29G40     N/A
* MONARCH      N/A       53  26  35 SW12G17    N/A
* PENDROY      N/A       50  33  52 W4G11      N/A
* ROGERS PASS  N/A       49  31  50 SE9G22     N/A
* SAINT MARY   N/A       44  40  86 S10G24     N/A
$$

MTZ011-013-016-021-035-040-045-047-050-051-281500-
NORTH CENTRAL MONTANA
CITY           SKY/WX    TMP DP  RH WIND       PRES   REMARKS
HAVRE          PTSUNNY   45  36  71 SW6       29.60F
LEWISTOWN      PTCLDY    61  32  34 SW21      29.72F
* N BAR RANCH  SUNNY     46  32  58 CALM      29.77F
* MALTA APT    PTSUNNY   34  28  79 N/A        N/A
* CHESTER      N/A       40  33  76 N1         N/A
* DENTON       N/A       52  34  50 S16        N/A
* GEYSER       N/A       56  33  42 S12G17     N/A
* JUDITH GAP   N/A       43  31  63 SE7        N/A
* LOMA         N/A       45  34  65 NE2        N/A
$$

MTZ017>020-022>027-061-062-281500-
NORTHEAST MONTANA
CITY           SKY/WX    TMP DP  RH WIND       PRES   REMARKS
GLASGOW        SUNNY     39  34  82 E13       29.67F WCI  31
GLENDIVE       SUNNY     43  36  76 S10       29.77F
JORDAN         SUNNY     37  34  89 CALM      29.71F
SIDNEY         SUNNY     37  34  89 CALM      29.76F
WOLF POINT     SUNNY     37  34  89 NE6       29.70F WCI  32
* BEAVER HILL  N/A       49  34  56 S17        N/A
* CIRCLE       N/A       43  35  73 N/A        N/A
* LINDSAY DVD  N/A       46  35  66 S2         N/A
* NAVAJO       N/A       37  34  89 S9         N/A   WCI  30
* SACO         N/A       38  35  89 E8         N/A   WCI  32
$$

MTZ028>042-056>058-281500-
SOUTHCENTRAL AND SOUTHEAST MONTANA
CITY           SKY/WX    TMP DP  RH WIND       PRES   REMARKS
BAKER          SUNNY     43  36  76 SE6       29.82F
BILLINGS       SUNNY     54  30  40 SW16      29.79F
LIVINGSTON     PTCLDY    57  30  36 SW30G40   29.80F
MILES CITY     SUNNY     43  32  65 S10       29.78F
* ROUNDUP APT  SUNNY     43  28  56 S8         N/A
* ALZADA       N/A       39  32  76 E1         N/A
* HYSHAM       N/A       54  28  37 W4G9       N/A
* LAME DEER    N/A       54  30  40 SW8        N/A
* REED POINT   N/A       35  34  96 NW1        N/A
* ROSCOE HILL  N/A       57  17  21 SE2G12     N/A
$$

REGIONAL REPORTS...DAKOTAS
CITY           SKY/WX    TMP DP  RH WIND       PRES   REMARKS
WILLISTON      SUNNY     41  36  82 S6        29.75F
DICKINSON      SUNNY     43  34  71 S16       29.81F
CROSBY         SUNNY     39  37  93 S17G24    29.72F WCI  30
WATFORD CITY   SUNNY     43  36  76 S9        29.75F
BISMARCK       FOG       28  28 100 SE10      29.95F VSB M1/4 WCI  19
GRAND FORKS    CLOUDY    27  21  78 S15       30.08F WCI  15
FARGO          PTCLDY    30  21  69 S16       30.11F WCI  19
BUFFALO SD     SUNNY     39  34  82 S8        29.80F WCI  33
RAPID CITY     SUNNY     39  34  82 E3        29.91F
$$

REGIONAL REPORTS...WYOMING/IDAHO/WASHINGTON
CITY           SKY/WX    TMP DP  RH WIND       PRES   REMARKS
GILLETTE       SUNNY     50  34  54 S5        29.91S
SHERIDAN       SUNNY     55  34  45 E3        29.86F
CODY           SUNNY     57  30  36 S9        29.94F
YELLOWSTONE LA PTCLDY    25  21  85 CALM      30.12F
SALMON         CLOUDY    37  34  89 CALM      29.89S
MULLAN PASS    SNOW      30  30 100 VRB6      29.94S VSB 1/2  WCI  24
SAND POINT     CLOUDY    46  45  96 SW13G23   29.90R
SPOKANE        PTCLDY    43  36  76 SW23G29   29.98R

$$



USA.gov is the U.S. government's official web portal to all federal, state and local government web resources and services.